Regional Weather Roundup
Issued by NWS Glasgow, MT

Home | Current Version | Previous Version | Text Only | Print | Product List | Glossary On
Versions: 1 2 3 4 5 6 7 8 9 10 11 12 13 14 15 16 17 18 19 20 21 22 23 24 25 26 27 28 29 30 31 32 33 34 35 36 37 38 39 40 41 42 43 44 45 46 47 48 49 50
000
ASUS45 KGGW 230015
RWRGGW
HOURLY WEATHER ROUNDUP FOR NORTHEAST MONTANA
NATIONAL WEATHER SERVICE GLASGOW MONTANA
600 PM MDT TUE JUL 22 2014

NOTE: "FAIR" INDICATES FEW OR NO CLOUDS BELOW 12,000 FEET WITH NO
SIGNIFICANT WEATHER AND/OR OBSTRUCTIONS TO VISISBILITY.

NORTHEAST MONTANA


CITY           SKY/WX    TMP DP  RH WIND       PRES   REMARKS
GLASGOW        CLOUDY    82  49  31 NE7       30.17R
6HR MIN TEMP:  81; 6HR MAX TEMP:  86;

PLENTYWOOD       N/A     77  60  55 NE7         N/A
WOLF POINT     CLOUDY    84  48  28 NE10      30.17S
JORDAN           N/A     84  53  34 E12       30.17S
WINNETT          N/A     86  51  29 E10         N/A
SIDNEY         CLOUDY    81  55  41 NE6       30.17F
GLENDIVE       CLOUDY    73  63  68 NE9       30.19R
MALTA            N/A     87  57  35 E5          N/A
SCOBEY           N/A     79  54  41 N6        30.19F

FORT PECK REPORTS


CITY           SKY/WX    TMP DP  RH WIND       PRES   REMARKS
FORT PECK        N/A     83  51  33 NE3         N/A
THE PINES        N/A     84  51  31 NE8         N/A

SOUTHEAST MONTANA


CITY           SKY/WX    TMP DP  RH WIND       PRES   REMARKS
BILLINGS       PTSUNNY   87  53  31 NE13      30.15S
MILES CITY     SUNNY     79  61  53 NE21G28   30.15S
BAKER          CLOUDY    67  32  27 E10       30.20F
LIVINGSTON     PTSUNNY   69  54  58 S14       30.22F

CENTRAL MONTANA


CITY           SKY/WX    TMP DP  RH WIND       PRES   REMARKS
HAVRE          MOSUNNY   84  47  27 CALM      30.15F
LEWISTOWN      MOSUNNY   80  54  40 E12G23    30.21S
GREAT FALLS    PTSUNNY   84  47  27 E8        30.14S
CUT BANK       MOSUNNY   81  44  27 VRB5      30.18S
HELENA         PTSUNNY   84  55  36 VRB7      30.14S
BUTTE          LGT RAIN  80  47  31 VRB3      30.24R
BOZEMAN        CLOUDY    78  50  37 S18       30.21S

WESTERN MONTANA


CITY           SKY/WX    TMP DP  RH WIND       PRES   REMARKS
MISSOULA       MOSUNNY   87  48  25 N14       30.08S
KALISPELL      NOT AVBL

NORTH DAKOTA


CITY           SKY/WX    TMP DP  RH WIND       PRES   REMARKS
WILLISTON      PTSUNNY   84  47  27 NW8       30.17F
DICKINSON      PTSUNNY   75  62  64 E7        30.21R
MINOT          PTSUNNY   77  60  55 NE8       30.20S
BISMARCK       SUNNY     80  59  48 E6        30.19F

SOUTHERN SASKATCHEWAN


CITY           SKY/WX    TMP DP  RH WIND       PRES   REMARKS
REGINA         PTSUNNY   75  52  43 E7        30.24R
MOOSE JAW      PTSUNNY   75  52  43 E8        30.23S
ESTEVAN        PTSUNNY   77  59  53 E7        30.23S
SWIFT CURRENT  PTSUNNY   73  59  60 SE9       30.22R



USA.gov is the U.S. government's official web portal to all federal, state and local government web resources and services.